#timestamp,LO_Frequency,Hit,StdDev 
1638392415.6,286047000.1,N
1638392435.4,286047002.7,N
1638392455.2,286047000.2,N
1638392475.1,286047000.3,N
1638392476.0,286047000.3,N
1638392495.8,286047002.8,N
1638392515.7,286047000.1,N
1638392535.5,286047000.0,N
1638392555.3,286047000.7,N
1638392575.2,286047000.4,N
1638392595.0,286046999.8,N
1638392595.9,286046999.8,N
1638392615.7,286047002.0,N
1638392635.6,286047000.1,N
1638392655.4,286047000.4,N
1638392675.3,286047001.2,N
1638392695.1,286047000.8,N
1638392696.0,286047000.8,N
1638392715.8,286047000.7,N
1638392735.7,286046999.8,N
1638392755.1,286047002.7,N
1638392756.0,286047002.7,N
1638392775.8,286047001.9,N
1638392795.6,286047002.4,N
1638392815.5,286047001.8,N
1638392835.3,286047002.0,N
1638392855.2,286047002.1,N
1638392875.9,286047001.8,N
1638392895.7,286047002.7,N
1638392915.6,286046999.9,N
1638392935.4,286047002.5,N
1638392955.2,286047004.3,Y
1638392975.1,286047004.4,P
1638392976.0,286047004.4,N
1638392995.8,286047001.5,N
1638393015.7,286047004.4,N
1638393035.5,286047002.0,N
1638393055.3,286047001.3,N
1638393075.2,286047001.9,N
1638393095.0,286047002.3,N
1638393095.9,286047002.3,N
1638393115.7,286047002.2,N
1638393135.6,286047002.5,N
1638393155.4,286047004.3,Y
1638393175.3,286047000.6,P
1638393195.1,286047000.8,N
1638393215.8,286046998.5,N
1638393235.7,286046998.5,N
1638393255.5,286046999.2,N
1638393275.4,286046999.0,N
1638393295.2,286046997.4,N
1638393315.0,286046997.7,N
1638393315.9,286046997.7,N
1638393335.8,286046999.6,N
1638393355.6,286046999.3,N
1638393375.5,286046997.3,N
1638393395.3,286046998.0,N
1638393415.1,286046995.3,Y
1638393435.9,286046996.7,P
1638393455.7,286046997.4,N
1638393475.5,286046999.6,N
1638393495.4,286046996.7,N
1638393515.2,286046997.6,N
1638393535.1,286046995.4,Y
1638393536.0,286046995.4,P
1638393555.8,286046998.7,N
1638393575.6,286046998.5,N
1638393595.5,286047000.1,N
1638393615.3,286047002.6,N
1638393635.2,286047002.2,N
1638393655.9,286047001.8,N
1638393675.7,286047001.8,N
1638393695.6,286047002.1,N
1638393715.4,286047001.8,N
1638393735.2,286047002.4,N
1638393755.1,286047001.8,N
1638393756.0,286047001.8,N
1638393775.8,286047004.4,N
1638393795.7,286047001.8,N
1638393815.5,286047004.4,N
1638393835.3,286047001.6,N
1638393855.2,286047001.9,N
1638393875.9,286047001.7,N
1638393895.7,286047000.1,N
1638393915.6,286047001.9,N
1638393935.4,286047004.4,N
1638393955.2,286047004.1,N
1638393975.1,286047004.1,N
1638393976.0,286047004.1,N
1638393995.8,286047004.2,N
1638394015.7,286047004.0,N
1638394035.5,286047003.5,N
1638394055.3,286047003.8,N
1638394075.2,286047003.7,N
1638394095.0,286047003.4,N
1638394095.9,286047003.4,N
1638394115.8,286047003.1,N
1638394135.6,286047004.8,Y
1638394155.4,286047001.5,P
1638394175.3,286047002.5,P
1638394195.1,286047002.4,P
1638394215.8,286047001.4,N
1638394235.7,286047002.6,Y
1638394255.5,286047000.8,P
1638394275.4,286046998.1,N
1638394295.2,286047000.4,N
1638394315.0,286047000.6,N
1638394315.9,286047000.6,N
1638394335.8,286047000.8,N
1638394355.6,286046999.1,N
1638394375.4,286046997.0,N
1638394395.3,286046999.1,N
1638394415.1,286046998.7,N
1638394435.9,286047001.2,N
1638394455.7,286047001.1,N
1638394475.5,286047000.8,N
1638394495.4,286046999.3,N
1638394515.2,286046998.8,N
1638394535.0,286046999.1,N
1638394535.9,286046999.1,N
1638394555.8,286046999.4,N
1638394575.6,286046999.5,N
1638394595.5,286046997.1,N
1638394615.3,286046996.5,N
1638394635.1,286046999.4,N
1638394655.9,286046999.4,N
1638394675.7,286046999.3,N
1638394695.6,286046999.1,N
1638394715.4,286046999.1,N
1638394735.2,286046998.4,N
1638394755.1,286046998.1,N
1638394756.0,286046998.1,N
1638394775.8,286046999.5,N
1638394795.7,286046998.7,N
1638394815.5,286046998.9,N
1638394835.3,286047001.2,N
1638394855.2,286047001.2,N
1638394875.0,286046998.2,N
1638394875.9,286046998.2,N
1638394895.7,286047001.0,N
1638394915.6,286047000.7,N
1638394935.4,286047001.1,N
1638394955.3,286047000.2,N
1638394975.1,286047002.1,N
1638394995.8,286047000.7,N
1638395015.7,286046998.2,N
1638395035.5,286046998.6,N
1638395055.4,286046998.9,N
1638395075.2,286047001.1,N
1638395095.0,286047000.6,N
1638395095.9,286047000.6,N
1638395115.8,286047000.4,N
1638395135.6,286046998.5,N
1638395155.4,286046999.3,N
1638395175.3,286046999.0,N
1638395195.1,286046999.3,N
1638395215.9,286046996.9,N
1638395235.7,286046996.5,N
1638395255.5,286046999.5,N
1638395275.4,286046996.5,N
1638395295.2,286046998.9,N
1638395315.0,286046998.2,N
1638395315.9,286046998.2,N
1638395335.8,286046999.3,N
1638395355.6,286046999.0,N
1638395375.5,286046998.4,N
1638395395.3,286046999.0,N
1638395415.1,286047001.1,N
1638395435.9,286046998.9,N
1638395455.7,286046998.9,N
1638395475.5,286046999.0,N
1638395495.4,286046996.5,N
1638395515.2,286046999.5,N
1638395535.1,286046999.0,N
1638395536.0,286046999.0,N
1638395555.8,286046998.8,N
1638395575.6,286046999.1,N
1638395595.5,286046999.3,N
1638395615.3,286046999.5,N
1638395635.2,286046999.2,N
1638395655.9,286046996.6,Y
1638395675.7,286046999.3,P
1638395695.6,286046999.3,P
1638395745.4,286046998.5,E
1638395755.4,286046998.2,N
1638395775.2,286047002.8,P
1638395795.0,286047002.4,N
1638395795.9,286047002.4,N
1638395815.8,286047002.3,N
1638395835.6,286047002.5,N
1638395855.5,286047001.6,N
1638395875.3,286047002.6,N
1638395895.1,286047004.3,Y
1638395915.9,286047000.7,P
1638395935.7,286047001.1,N
1638395955.5,286047000.3,N
1638395975.4,286047001.1,N
1638395995.2,286047000.8,N
